Wind_Speed
33 31 30 29 28 27 27 26 26 25 26 25 24 24 24 24 25 25 25 25 25 25 24 24 24 24 24 24 25 26 27 27 27 27 27 28 29 29 29 29 30 31 31
31 31 31 30 29 28 27 27 27 27 28 27 26 26 25 26 26 25 25 25 25 24 24 24 24 24 24 25 25 26 27 28 27 28 29 29 29 30 31 31 32 32 33
30 31 32 31 30 29 29 29 28 27 27 26 26 26 25 25 26 26 26 24 24 24 24 23 23 24 24 25 25 26 27 27 28 29 31 31 30 31 32 33 34 35 35
28 30 31 31 30 29 28 27 26 26 27 26 25 25 25 24 24 24 25 25 25 24 24 24 24 24 25 25 25 26 26 27 28 30 31 31 32 33 34 35 36 37 37
26 28 29 29 29 27 26 26 25 26 26 26 24 23 24 23 23 23 22 22 22 22 22 22 23 24 25 25 26 27 26 27 28 29 30 31 33 34 36 37 37 38 39
23 25 26 27 27 26 26 25 25 24 24 24 23 21 22 21 20 21 21 21 21 20 21 22 23 24 25 25 25 27 27 28 29 30 31 33 34 36 37 38 39 40 41
22 23 24 24 25 26 26 26 25 24 23 23 22 21 21 20 19 19 20 20 20 20 21 21 23 24 26 27 28 29 30 31 32 33 34 35 37 38 39 40 42 43 44
22 23 24 24 25 25 26 26 25 24 22 23 24 22 22 22 20 20 22 22 23 24 24 24 25 27 29 30 30 31 33 34 35 36 37 38 39 40 41 42 44 45 46
22 23 23 24 24 24 25 25 25 24 24 23 23 24 23 23 22 22 24 25 26 26 27 27 29 30 31 32 33 34 35 36 37 38 39 40 41 42 43 43 44 45 46
21 22 23 23 24 23 24 25 24 25 24 23 23 24 25 25 25 25 26 26 27 27 27 29 30 32 33 34 35 36 37 38 39 40 41 41 41 42 43 43 44 45 46
19 21 22 24 24 24 24 25 25 25 24 23 23 24 25 25 25 25 27 27 28 28 29 30 31 32 34 35 36 37 38 39 40 41 41 41 41 42 43 43 44 45 46
17 19 20 22 23 23 24 24 24 24 24 24 24 24 24 25 26 27 27 28 29 30 31 32 33 34 35 36 37 38 39 40 40 40 40 40 41 42 43 43 43 43 44
16 16 17 19 20 22 22 23 24 24 24 24 24 24 24 25 27 28 29 30 31 32 33 33 34 35 35 37 38 39 40 40 39 40 40 40 40 41 41 41 40 40 39
14 15 15 17 18 20 22 23 23 24 24 25 26 26 26 27 28 29 29 30 31 32 33 33 34 35 36 37 38 38 38 38 38 38 38 38 38 38 37 37 36 36 35
15 15 15 16 17 19 21 22 23 24 25 26 26 26 27 28 28 29 30 30 31 32 32 32 33 34 35 35 35 35 35 35 35 35 35 35 35 34 34 33 32 32 32
14 16 17 17 18 19 20 21 22 23 24 25 26 26 27 27 28 28 29 30 30 31 31 31 31 31 31 31 32 32 31 31 32 31 31 31 31 31 30 29 29 28 28
14 15 16 17 18 19 20 21 22 22 23 24 25 25 25 26 26 27 28 28 28 29 29 29 29 29 29 28 28 28 28 28 28 28 29 29 28 27 26 26 26 25 25
14 14 15 17 18 18 19 20 21 21 22 23 23 24 24 25 25 26 26 26 26 26 26 26 27 27 27 26 26 27 26 26 26 26 26 26 25 24 23 23 23 22 22
14 15 16 17 17 18 18 19 20 20 21 21 22 23 23 23 23 24 24 24 24 24 25 25 25 25 25 25 25 25 24 24 23 23 23 22 22 21 20 20 20 20 21
15 15 16 17 18 18 19 19 19 19 20 20 21 22 22 22 22 22 22 22 22 23 23 23 23 23 23 23 22 22 21 21 21 21 20 19 19 18 18 18 18 19 20
13 14 15 15 15 16 16 16 17 17 17 18 19 20 20 20 20 20 20 21 21 21 21 21 20 20 20 20 20 19 19 19 18 18 17 17 16 16 16 17 17 18 19
10 11 12 12 13 13 14 14 15 15 16 17 17 18 18 18 18 18 19 19 19 19 18 18 17 17 17 17 17 17 16 16 16 16 15 15 15 15 16 16 17 17 18
9 9 10 10 11 12 13 13 14 15 16 16 16 17 18 18 18 18 18 17 17 16 16 15 15 15 15 15 15 14 14 14 13 13 13 13 14 14 15 16 16 16 17
7 7 8 9 10 11 11 12 12 13 14 15 16 17 17 17 17 17 16 15 14 14 14 13 13 13 13 13 13 12 12 12 11 11 12 12 13 13 14 14 15 16 16
7 7 8 8 9 10 11 11 12 12 13 13 14 14 14 14 14 13 13 12 11 11 11 11 11 12 12 12 11 10 10 10 10 10 11 12 12 13 13 14 15 15 15
7 7 7 8 9 9 9 9 9 10 10 11 11 11 11 11 11 10 9 9 9 9 9 10 10 10 10 10 9 9 9 9 9 10 10 11 12 12 13 14 14 14 15
Wind_Direction
245 247 251 255 260 265 269 270 268 265 259 254 247 242 242 240 237 236 235 235 237 239 241 243 246 248 250 255 258 260 260 261 265 269 272 273 274 275 275 276 279 280 280
244 246 250 253 259 265 270 271 269 267 259 254 252 248 245 240 238 236 238 239 237 239 240 244 248 251 253 257 260 261 261 262 264 268 271 273 274 275 275 277 278 279 280
244 246 249 254 259 264 268 271 270 267 261 256 249 247 242 241 240 241 241 243 243 244 246 250 253 255 256 259 262 264 264 266 267 269 272 272 273 274 276 278 279 280 281
243 245 249 252 256 261 264 265 264 262 261 255 254 245 241 243 244 241 240 242 245 248 248 252 256 258 260 262 265 265 267 269 270 271 272 273 275 276 278 279 281 281 281
243 245 248 252 254 257 260 259 257 258 260 257 253 250 243 241 241 238 240 244 248 253 255 257 257 260 263 265 265 266 269 270 274 276 278 279 279 278 279 280 281 282 282
248 248 251 253 253 255 256 254 255 258 263 263 259 256 250 245 244 245 244 249 255 257 260 263 262 262 264 266 268 269 269 274 278 278 279 280 280 281 281 282 282 283 284
254 253 251 251 254 256 256 257 256 259 263 264 264 263 255 249 248 248 248 253 258 261 264 264 264 263 265 268 271 272 273 276 278 280 281 281 282 281 281 282 283 284 285
255 254 254 253 256 258 258 258 259 261 263 264 264 267 258 254 252 252 254 256 259 261 262 264 266 267 270 271 272 273 276 277 279 280 282 282 283 283 282 282 283 284 285
257 256 256 255 257 257 257 259 262 262 262 263 266 265 263 259 255 256 257 259 261 263 266 267 269 270 272 274 276 277 279 279 280 282 283 283 282 283 283 283 284 285 286
259 256 256 256 256 258 258 258 262 262 261 262 263 261 263 264 261 260 260 262 264 266 269 270 272 273 273 275 277 279 280 281 281 283 283 283 283 283 283 284 285 286 287
263 258 256 254 256 257 258 261 261 259 261 262 262 261 262 263 262 263 264 266 268 270 271 273 276 276 276 277 278 280 281 281 282 284 284 283 283 284 285 285 286 287 288
269 266 258 255 256 257 258 260 262 261 262 263 263 263 263 264 265 267 269 271 273 274 274 276 276 277 277 279 280 281 282 283 284 284 283 284 284 285 286 287 288 289 289
274 269 261 262 261 259 260 261 262 263 264 264 264 267 268 269 270 271 272 273 275 276 276 276 277 278 280 281 282 283 283 284 284 284 284 285 285 286 287 288 289 290 290
274 270 263 262 263 262 262 263 263 264 264 265 266 268 270 270 271 272 273 274 275 276 277 278 279 280 282 283 284 284 284 284 285 284 285 286 286 287 289 290 290 291 291
271 268 263 262 262 262 263 263 264 264 264 264 266 267 268 270 271 272 273 274 275 277 279 280 281 283 284 285 284 285 285 285 286 286 287 287 289 289 290 291 291 292 292
271 266 264 264 263 263 264 265 266 266 266 267 268 269 270 271 273 274 275 276 278 279 281 282 283 284 285 286 287 287 288 288 288 289 290 291 291 291 291 291 292 292 293
274 271 269 267 266 269 269 268 269 270 271 273 274 274 275 275 275 276 276 277 279 281 282 282 283 285 286 288 289 291 291 291 291 293 293 293 292 292 292 292 292 293 295
270 267 267 269 271 273 274 274 275 275 275 276 276 278 278 277 278 279 280 281 282 283 284 284 285 287 288 288 290 292 293 293 293 294 293 293 292 293 292 292 293 296 298
274 271 270 272 275 277 279 281 279 276 275 276 279 281 282 282 281 281 282 283 283 285 287 288 288 287 289 291 292 292 294 295 296 296 295 295 295 294 294 295 297 300 302
276 275 277 279 279 278 279 281 281 279 278 279 281 283 284 285 284 283 283 285 288 290 291 292 292 292 293 294 294 294 294 295 296 295 294 294 295 295 296 299 302 304 306
280 280 280 282 282 282 282 281 281 281 282 281 282 284 287 287 286 286 287 289 291 292 293 294 294 294 295 296 295 295 295 295 295 294 294 293 293 295 299 303 306 308 309
292 289 287 287 286 286 285 284 284 285 286 287 287 288 290 290 290 291 292 293 294 294 296 296 297 298 299 299 299 298 297 296 296 296 294 293 293 297 302 305 308 310 312
301 298 295 296 296 295 291 289 288 289 289 290 290 292 293 294 294 295 295 295 296 296 297 299 301 302 303 303 302 301 300 300 299 298 297 297 299 304 307 310 311 314 316
316 314 312 311 308 305 302 298 296 295 295 297 297 298 298 297 296 296 296 297 298 297 299 302 304 304 305 306 306 303 302 301 301 301 302 303 306 310 312 314 316 317 318
332 327 324 321 317 312 307 302 299 300 301 303 303 305 305 304 303 301 301 301 300 301 302 306 309 308 308 308 308 307 306 306 306 307 309 311 312 314 316 317 319 321 321
354 349 345 340 333 328 322 316 313 311 312 313 313 314 314 314 313 311 309 308 306 307 309 313 315 314 313 313 312 313 314 313 314 315 316 318 320 321 321 322 323 325 326
Height
5809 5812 5814 5816 5817 5818 5818 5818 5818 5818 5818 5819 5821 5822 5822 5824 5826 5828 5829 5831 5833 5834 5836 5837 5838 5839 5840 5840 5841 5841 5841 5841 5841 5841 5840 5839 5839 5838 5837 5836 5835 5834 5832
5802 5805 5808 5810 5812 5813 5813 5813 5813 5812 5813 5814 5815 5816 5817 5818 5820 5822 5824 5825 5827 5829 5830 5832 5833 5833 5834 5834 5834 5835 5835 5834 5834 5834 5834 5833 5833 5831 5831 5830 5828 5827 5825
5797 5799 5802 5804 5806 5806 5807 5808 5807 5807 5807 5807 5809 5810 5811 5812 5815 5817 5819 5820 5822 5823 5824 5826 5827 5828 5829 5829 5829 5829 5829 5828 5828 5828 5827 5826 5826 5825 5824 5822 5821 5819 5818
5791 5794 5796 5798 5800 5801 5802 5802 5802 5802 5802 5803 5803 5804 5805 5807 5809 5810 5813 5814 5816 5817 5818 5820 5821 5822 5822 5823 5823 5823 5822 5822 5821 5821 5820 5819 5818 5817 5816 5815 5813 5811 5810
5786 5788 5790 5792 5794 5795 5796 5796 5797 5798 5798 5798 5798 5799 5799 5801 5804 5805 5807 5809 5810 5811 5812 5813 5814 5815 5816 5816 5816 5816 5816 5815 5815 5814 5813 5812 5810 5809 5808 5806 5805 5803 5801
5781 5783 5785 5786 5788 5790 5791 5791 5792 5793 5793 5793 5794 5793 5794 5795 5797 5799 5801 5803 5805 5806 5807 5807 5808 5809 5809 5809 5809 5809 5809 5808 5807 5806 5805 5804 5802 5801 5799 5797 5795 5793 5791
5776 5777 5779 5781 5782 5783 5785 5786 5786 5786 5786 5787 5788 5788 5788 5789 5792 5794 5795 5797 5799 5800 5801 5802 5802 5802 5802 5802 5802 5802 5802 5801 5800 5798 5797 5795 5794 5792 5790 5788 5785 5783 5780
5770 5771 5773 5775 5776 5777 5778 5779 5780 5780 5780 5781 5782 5782 5783 5784 5786 5788 5790 5791 5793 5794 5795 5795 5795 5795 5795 5795 5794 5794 5793 5792 5791 5790 5788 5786 5784 5782 5780 5777 5775 5772 5769
5764 5766 5767 5769 5770 5770 5771 5772 5773 5774 5775 5776 5776 5777 5777 5779 5780 5782 5784 5785 5786 5787 5788 5788 5788 5788 5788 5787 5786 5785 5784 5783 5782 5780 5778 5776 5774 5771 5769 5766 5763 5761 5758
5758 5759 5761 5762 5763 5764 5765 5766 5767 5768 5769 5769 5770 5772 5773 5773 5774 5776 5777 5778 5779 5779 5780 5780 5780 5779 5779 5778 5777 5776 5775 5773 5772 5770 5768 5765 5763 5760 5758 5755 5752 5749 5746
5753 5753 5755 5756 5757 5758 5759 5760 5761 5762 5762 5763 5764 5765 5766 5767 5769 5769 5770 5770 5771 5771 5771 5771 5771 5770 5770 5769 5768 5766 5764 5763 5761 5759 5757 5754 5752 5749 5746 5743 5740 5737 5734
5748 5748 5749 5750 5751 5752 5753 5754 5754 5755 5756 5757 5758 5758 5759 5760 5761 5761 5762 5763 5763 5763 5763 5762 5762 5761 5760 5759 5758 5756 5754 5752 5750 5748 5746 5743 5741 5738 5735 5732 5729 5725 5722
5742 5743 5743 5744 5745 5745 5747 5748 5748 5749 5750 5751 5752 5752 5752 5753 5753 5754 5754 5755 5755 5755 5754 5753 5753 5752 5750 5749 5747 5746 5743 5741 5739 5737 5735 5732 5730 5727 5724 5721 5718 5714 5711
5738 5738 5738 5738 5739 5740 5741 5741 5742 5743 5744 5744 5745 5745 5746 5746 5746 5746 5746 5746 5746 5746 5745 5744 5743 5742 5740 5739 5737 5735 5732 5730 5728 5726 5724 5721 5719 5716 5713 5710 5707 5705 5702
5733 5733 5733 5733 5734 5734 5735 5735 5736 5737 5737 5738 5738 5738 5738 5738 5738 5738 5738 5738 5737 5737 5736 5735 5734 5732 5731 5729 5727 5725 5722 5720 5718 5716 5713 5711 5709 5706 5703 5701 5698 5696 5693
5728 5728 5728 5728 5728 5729 5729 5729 5729 5730 5730 5730 5730 5730 5730 5730 5730 5730 5729 5729 5728 5728 5727 5725 5724 5723 5721 5719 5717 5715 5713 5711 5709 5707 5704 5702 5700 5697 5695 5692 5690 5688 5685
5724 5723 5723 5723 5723 5723 5723 5723 5722 5722 5722 5723 5722 5722 5722 5722 5722 5721 5721 5720 5719 5719 5718 5717 5716 5715 5713 5711 5709 5707 5705 5703 5700 5698 5696 5694 5692 5690 5687 5685 5683 5681 5678
5719 5718 5718 5718 5717 5717 5717 5716 5716 5716 5716 5715 5715 5715 5714 5714 5714 5713 5713 5712 5712 5711 5710 5709 5708 5706 5705 5703 5701 5699 5697 5695 5693 5691 5689 5687 5685 5683 5680 5679 5677 5674 5672
5714 5714 5713 5713 5712 5712 5711 5710 5710 5710 5710 5709 5708 5708 5707 5707 5707 5706 5706 5705 5704 5704 5703 5701 5700 5699 5697 5696 5694 5692 5690 5689 5687 5684 5682 5681 5679 5677 5675 5673 5671 5669 5666
5710 5709 5709 5708 5707 5707 5706 5705 5705 5704 5704 5703 5702 5702 5701 5701 5700 5700 5699 5698 5697 5696 5696 5694 5693 5692 5691 5689 5687 5686 5684 5682 5680 5679 5676 5675 5673 5671 5669 5668 5665 5663 5661
5706 5705 5704 5704 5703 5702 5701 5700 5700 5699 5699 5698 5697 5697 5696 5695 5694 5694 5693 5692 5691 5691 5690 5688 5687 5685 5684 5683 5681 5680 5678 5676 5674 5673 5671 5669 5668 5666 5665 5663 5660 5658 5656
5702 5701 5700 5699 5698 5697 5697 5696 5695 5695 5694 5694 5693 5692 5691 5690 5689 5688 5687 5687 5686 5685 5684 5682 5681 5680 5679 5677 5675 5674 5672 5671 5669 5668 5666 5665 5663 5662 5660 5658 5656 5654 5651
5699 5698 5697 5696 5695 5694 5693 5692 5691 5691 5690 5689 5688 5687 5686 5685 5684 5683 5682 5682 5681 5679 5678 5677 5676 5675 5674 5672 5671 5669 5668 5666 5665 5663 5662 5661 5659 5658 5656 5654 5652 5650 5647
5697 5696 5695 5694 5692 5691 5690 5689 5688 5687 5686 5685 5684 5683 5682 5681 5680 5678 5677 5676 5676 5675 5674 5673 5672 5671 5669 5668 5666 5665 5664 5662 5661 5660 5659 5657 5656 5654 5652 5650 5648 5646 5643
5696 5695 5694 5692 5691 5689 5687 5686 5685 5684 5683 5681 5680 5679 5678 5677 5675 5674 5673 5672 5672 5671 5670 5669 5668 5667 5666 5664 5663 5662 5660 5659 5658 5657 5656 5654 5653 5651 5649 5647 5645 5642 5640
5696 5694 5692 5691 5689 5687 5685 5684 5683 5681 5680 5679 5678 5676 5675 5674 5672 5671 5670 5669 5669 5668 5667 5666 5665 5664 5663 5661 5660 5659 5658 5656 5655 5654 5653 5651 5650 5648 5646 5644 5642 5639 5637